TimeAST,TemperatureF,Dew PointF,Humidity,Sea Level PressureIn,VisibilityMPH,Wind Direction,Wind SpeedMPH,Gust SpeedMPH,PrecipitationIn,Events,Conditions,WindDirDegrees,DateUTC
12:00 AM,80.6,73.4,79,29.95,6.2,ESE,20.7,-,N/A,,Partly Cloudy,120,2013-03-27 04:00:00
1:00 AM,80.6,73.4,79,29.92,6.2,SE,18.4,-,N/A,,Scattered Clouds,130,2013-03-27 05:00:00
2:00 AM,80,73,75,29.91,12,ESE,13.8,,,,Widespread Dust,120,2013-03-27 06:00:00
2:00 AM,78.8,73.4,83,29.89,6.2,ESE,13.8,-,N/A,,Scattered Clouds,120,2013-03-27 06:00:00
3:00 AM,78.8,73.4,83,29.89,6.2,ESE,18.4,-,N/A,,Partly Cloudy,120,2013-03-27 07:00:00
4:00 AM,78.8,73.4,83,29.89,6.2,ESE,19.6,-,N/A,,Partly Cloudy,120,2013-03-27 08:00:00
5:00 AM,80,74,77,,12,ESE,17.3,,,,Widespread Dust,110,2013-03-27 09:00:00
5:00 AM,80.6,73.4,79,29.92,6.2,ESE,17.3,-,N/A,,Scattered Clouds,110,2013-03-27 09:00:00
6:00 AM,80.6,73.4,79,29.95,6.2,ESE,16.1,-,N/A,,Mostly Cloudy,110,2013-03-27 10:00:00
7:00 AM,80.6,75.2,84,29.95,6.2,ESE,13.8,-,N/A,,Scattered Clouds,110,2013-03-27 11:00:00
8:00 AM,82,75,73,29.99,7,ESE,18.4,,,,Mostly Cloudy,110,2013-03-27 12:00:00
8:00 AM,82.4,75.2,79,29.98,6.2,ESE,18.4,-,N/A,,Mostly Cloudy,110,2013-03-27 12:00:00
9:00 AM,84.2,75.2,74,30.01,6.2,ESE,20.7,-,N/A,,Scattered Clouds,120,2013-03-27 13:00:00
10:00 AM,82.4,77.0,84,30.04,6.2,ESE,18.4,-,N/A,Rain,Light Rain Showers,120,2013-03-27 14:00:00
11:00 AM,85,75,66,30.02,9,ESE,23.0,,,,Widespread Dust,120,2013-03-27 15:00:00
11:00 AM,84.2,75.2,74,30.01,6.2,ESE,23.0,-,N/A,,Scattered Clouds,120,2013-03-27 15:00:00
12:00 PM,86.0,75.2,70,30.01,6.2,ESE,18.4,-,N/A,,Mostly Cloudy,120,2013-03-27 16:00:00
1:00 PM,86.0,75.2,70,29.98,6.2,SE,23.0,-,N/A,,Mostly Cloudy,130,2013-03-27 17:00:00
2:00 PM,84,75,67,29.95,7,ESE,23.0,,,,Widespread Dust,110,2013-03-27 18:00:00
2:00 PM,84.2,75.2,74,29.95,6.2,ESE,23.0,-,N/A,,Scattered Clouds,110,2013-03-27 18:00:00
3:00 PM,84.2,73.4,70,29.92,6.2,ESE,19.6,-,N/A,,Partly Cloudy,120,2013-03-27 19:00:00
4:00 PM,84.2,75.2,74,29.92,6.2,SE,21.9,-,N/A,,Scattered Clouds,130,2013-03-27 20:00:00
5:00 PM,84,74,66,29.92,14,ESE,20.7,,,,Widespread Dust,120,2013-03-27 21:00:00
5:00 PM,84.2,75.2,74,29.92,6.2,ESE,20.7,-,N/A,,Mostly Cloudy,120,2013-03-27 21:00:00
6:00 PM,82.4,73.4,74,29.92,6.2,ESE,17.3,-,N/A,,Mostly Cloudy,110,2013-03-27 22:00:00
7:00 PM,80.6,75.2,84,29.92,6.2,ESE,19.6,-,N/A,,Mostly Cloudy,120,2013-03-27 23:00:00
8:00 PM,81,75,78,29.95,14,ESE,15.0,,,,Widespread Dust,110,2013-03-28 00:00:00
8:00 PM,80.6,75.2,84,29.95,6.2,ESE,15.0,-,N/A,,Mostly Cloudy,110,2013-03-28 00:00:00
9:00 PM,80.6,75.2,84,29.95,6.2,East,15.0,-,N/A,,Mostly Cloudy,100,2013-03-28 01:00:00
10:00 PM,80.6,75.2,84,29.95,6.2,East,17.3,-,N/A,,Scattered Clouds,100,2013-03-28 02:00:00
11:00 PM,80,74,78,29.96,12,East,15.0,,,,Widespread Dust,100,2013-03-28 03:00:00
11:00 PM,80.6,75.2,84,29.95,6.2,East,15.0,-,N/A,,Scattered Clouds,100,2013-03-28 03:00:00